Flag for United Kingdom Weather past 2 weeks in Middlesbrough, England, United Kingdom

Now
50 °F

Partly cloudy.


Feels Like: 48 °F
Forecast: 51 / 59 °F
Wind: 5 mph from West

Location: Leeming

Current Time: Jul 29, 2015 at 2:31:49 AM

Latest Report: Jul 29, 2015 at 1:50 AM


Visibility: N/A

Pressure: 29.68 "Hg

Humidity: 100%

Dew point: 50 °F

Location of MiddlesbroughLocation

Historic Weather in Middlesbrough — Graph

°F

Middlesbrough temperature yesterday

Maximum temperature yesterday: 57 °F (at 3:50 PM)
Minimum temperature yesterday: 50 °F (at 12:50 AM)
Average temperature yesterday: 52 °F

Past Weeks' High & Low Weather Summary

 TemperatureHumidityPressure
High70 °F (Jul 16, 2:50 PM)100% (Jul 14, 4:50 AM)30.15 "Hg (Jul 14, 4:50 AM)
Low39 °F (Jul 26, 5:50 AM)37% (Jul 23, 3:50 PM)29.33 "Hg (Jul 27, 12:50 AM)
Average57 °F78%29.82 "Hg
* Reported Jul 14 12:50 AM — Jul 29 12:50 AM, Middlesbrough, Weather by CustomWeather, © 2015

Note: Actual official high and low records may vary slightly from our data, if they occured in-between our weather recording intervals... More about our weather records

Advertising

Middlesbrough weather history for previous 24 hours

 ConditionsComfort  
Time TempWeatherWind HumidityBarometerVisibility
12:50 AM
Wed, Jul 29
50 °FLight rain. Passing clouds.3 mph100%29.68 "Hg5 mi
11:50 PM
Tue, Jul 28
50 °FLight rain. Partly cloudy.3 mph100%29.68 "Hg5 mi
10:50 PM50 °FRain. Partly cloudy.5 mph100%29.68 "Hg5 mi
9:50 PM50 °FRain. Partly sunny.7 mph100%29.68 "Hg5 mi
8:50 PM52 °FRain. Broken clouds.5 mph94%29.65 "HgN/A
7:50 PM52 °FRain. Broken clouds.3 mph94%29.65 "HgN/A
6:50 PM52 °FRain. Broken clouds.2 mph100%29.65 "HgN/A
5:50 PM54 °FRain. Broken clouds.5 mph88%29.65 "HgN/A
4:50 PM55 °FSleet. Overcast.5 mph88%29.62 "HgN/A
3:50 PM57 °FRain. Broken clouds.6 mph82%29.62 "HgN/A
2:50 PM55 °FBroken clouds.5 mph94%29.62 "HgN/A
1:50 PM55 °FMixture of precip. Broken clouds.5 mph88%29.62 "HgN/A
12:50 PM54 °FSleet. Broken clouds.3 mph94%29.62 "HgN/A
11:50 AM55 °FBroken clouds.5 mph88%29.59 "HgN/A
10:50 AM54 °FDrizzle. Broken clouds.9 mph94%29.59 "Hg3 mi
9:50 AM52 °FLight rain. More clouds than sun.8 mph94%29.56 "Hg4 mi
8:50 AM52 °FRain. More clouds than sun.7 mph94%29.56 "Hg2 mi
7:50 AM52 °FRain. More clouds than sun.8 mph94%29.56 "Hg3 mi
6:50 AM52 °FFog.9 mph94%29.53 "Hg4 mi
5:54 AM52 °FDrizzle. Mostly cloudy.3 mph100%29.53 "Hg3 mi
4:50 AM52 °FLight rain. Partly cloudy.5 mph100%29.50 "Hg2 mi
3:50 AM52 °FPartly cloudy.5 mph94%29.53 "Hg1 mi
2:50 AM50 °FRain. Passing clouds.6 mph100%29.53 "Hg2 mi
Weather by CustomWeather, © 2015

See weather overviewHow to use our weather pages